Torna al catalogo

FENGYUN 1C DEB

AttivoPO
NORAD 29972·DEBRIS·🇨🇳 China

Lanciato May 10, 1999 da Taiyuan Satellite Launch Center

Loading…

Prossimi Passaggi (prossime 24 ore)

TLE

AggiornatoSource: Space-Track

Epoca: Sep 14, 2026, 08:39 UTC

1 29972U 99025KW  26257.36065111  .00002842  00000-0  47821-3 0  9990
2 29972  98.9026 298.8247 0060311 237.3375 187.0640 14.69323265 35281

Traccia FENGYUN 1C DEB in tempo reale con AllMySat

Download on the App Store